2023/07/18 00:00:00, 0.1,23.3
2023/07/18 00:10:00, 0.1,23.7
2023/07/18 00:20:00, 0.0,23.4
2023/07/18 00:30:00, 0.0,23.4
2023/07/18 00:40:00, 0.0,23.6
2023/07/18 00:50:00, 0.1,23.4
2023/07/18 01:00:00, 0.8,23.5
2023/07/18 01:10:00, 0.3,23.1
2023/07/18 01:20:00, 0.0,23.3
2023/07/18 01:30:00, 0.0,22.9
2023/07/18 01:40:00, 0.0,23.0
2023/07/18 01:50:00, 0.0,22.9
2023/07/18 02:00:00, 0.0,23.4
2023/07/18 02:10:00, 0.0,22.8
2023/07/18 02:20:00, 0.0,22.6
2023/07/18 02:30:00, 0.0,22.6
2023/07/18 02:40:00, 0.0,22.8
2023/07/18 02:50:00, 5.5,22.4
2023/07/18 03:00:00, 9.0,22.5
2023/07/18 03:10:00,11.7,22.3
2023/07/18 03:20:00,12.4,21.7
2023/07/18 03:30:00,12.7,22.2
2023/07/18 03:40:00,13.1,22.3
2023/07/18 03:50:00,13.4,22.1
2023/07/18 04:00:00,14.1,22.0
2023/07/18 04:10:00,14.7,21.9
2023/07/18 04:20:00,15.7,21.9
2023/07/18 04:30:00,15.7,21.6
2023/07/18 04:40:00, 3.7,21.8
2023/07/18 04:50:00, 0.1,21.9
2023/07/18 05:00:00, 0.2,21.9
2023/07/18 05:10:00, 0.2,21.7
2023/07/18 05:20:00, 9.7,21.6
2023/07/18 05:30:00,13.5,21.5
2023/07/18 05:40:00,13.1,21.8
2023/07/18 05:50:00,13.0,21.6
2023/07/18 06:00:00,13.1,21.7
2023/07/18 06:10:00,13.4,21.9
2023/07/18 06:20:00,13.7,22.1
2023/07/18 06:30:00,14.1,22.3
2023/07/18 06:40:00,14.4,22.9
2023/07/18 06:50:00,14.4,23.1
2023/07/18 07:00:00,14.3,23.7
2023/07/18 07:10:00,13.3,24.1
2023/07/18 07:20:00,13.0,24.3
2023/07/18 07:30:00,13.1,24.1
2023/07/18 07:40:00,13.1,25.6
2023/07/18 07:50:00,13.5,25.6
2023/07/18 08:00:00,13.8,26.1
2023/07/18 08:10:00,14.0,27.7
2023/07/18 08:20:00,13.9,27.6
2023/07/18 08:30:00,12.1,28.1
2023/07/18 08:40:00, 4.8,28.8
2023/07/18 08:50:00, 0.3,29.5
2023/07/18 09:00:00, 1.0,28.6
2023/07/18 09:10:00,14.4,29.0
2023/07/18 09:20:00,14.9,29.1
2023/07/18 09:30:00,14.4,29.1
2023/07/18 09:40:00, 8.1,31.3
2023/07/18 09:50:00, 0.6,31.2
2023/07/18 10:00:00, 0.1,31.3
2023/07/18 10:10:00, 0.1,32.6
2023/07/18 10:20:00, 0.1,32.4
2023/07/18 10:30:00, 0.1,32.8
2023/07/18 10:40:00, 0.1,33.0
2023/07/18 10:50:00, 0.6,33.7
2023/07/18 11:00:00, 2.7,33.2
2023/07/18 11:10:00,---,32.9
2023/07/18 11:20:00,---,34.3
2023/07/18 11:30:00, 0.9,33.6
2023/07/18 11:40:00, 0.1,34.8
2023/07/18 11:50:00, 0.0,34.9
2023/07/18 12:00:00, 0.1,35.6
2023/07/18 12:10:00, 0.2,35.7
2023/07/18 12:20:00,10.5,34.1
2023/07/18 12:30:00,15.7,33.7
2023/07/18 12:40:00,13.8,35.1
2023/07/18 12:50:00,13.9,35.3
2023/07/18 13:00:00,13.8,36.1
2023/07/18 13:10:00,14.5,35.6
2023/07/18 13:20:00,14.5,35.3
2023/07/18 13:30:00,14.7,33.4
2023/07/18 13:40:00,14.5,34.0
2023/07/18 13:50:00,14.1,34.5
2023/07/18 14:00:00,14.3,33.4
2023/07/18 14:10:00,14.1,33.8
2023/07/18 14:20:00,10.7,32.5
2023/07/18 14:30:00, 6.4,33.0
2023/07/18 14:40:00, 9.8,33.6
2023/07/18 14:50:00,13.7,33.7
2023/07/18 15:00:00,15.1,33.3
2023/07/18 15:10:00,15.3,31.8
2023/07/18 15:20:00,14.9,31.1
2023/07/18 15:30:00,14.2,31.2
2023/07/18 15:40:00,14.0,31.1
2023/07/18 15:50:00,13.5,30.2
2023/07/18 16:00:00, 3.4,29.7
2023/07/18 16:10:00, 6.4,28.7
2023/07/18 16:20:00,13.2,28.8
2023/07/18 16:30:00,14.4,29.0
2023/07/18 16:40:00,13.9,28.7
2023/07/18 16:50:00,14.0,29.6
2023/07/18 17:00:00,13.8,31.4
2023/07/18 17:10:00, 7.5,31.4
2023/07/18 17:20:00, 3.7,31.3
2023/07/18 17:30:00, 4.1,31.5
2023/07/18 17:40:00, 3.5,30.0
2023/07/18 17:50:00, 0.8,28.9
2023/07/18 18:00:00, 0.0,28.8
2023/07/18 18:10:00, 0.0,28.5
2023/07/18 18:20:00, 0.0,28.2
2023/07/18 18:30:00, 0.0,27.9
2023/07/18 18:40:00, 0.0,27.8
2023/07/18 18:50:00, 0.0,27.3
2023/07/18 19:00:00, 0.0,26.9
2023/07/18 19:10:00, 0.1,27.0
2023/07/18 19:20:00, 0.1,26.3
2023/07/18 19:30:00, 0.1,26.0
2023/07/18 19:40:00, 0.0,25.8
2023/07/18 19:50:00, 0.0,25.7
2023/07/18 20:00:00, 0.0,25.9
2023/07/18 20:10:00, 0.0,25.6
2023/07/18 20:20:00, 0.0,25.5
2023/07/18 20:30:00, 0.0,25.6
2023/07/18 20:40:00, 0.0,25.4
2023/07/18 20:50:00, 0.0,25.3
2023/07/18 21:00:00, 0.0,25.2
2023/07/18 21:10:00, 0.1,25.4
2023/07/18 21:20:00, 0.1,25.0
2023/07/18 21:30:00, 0.1,25.1
2023/07/18 21:40:00, 0.1,25.0
2023/07/18 21:50:00, 0.1,24.8
2023/07/18 22:00:00, 0.1,24.8
2023/07/18 22:10:00, 0.1,24.7
2023/07/18 22:20:00, 0.1,24.7
2023/07/18 22:30:00, 0.0,24.7
2023/07/18 22:40:00, 0.1,24.5
2023/07/18 22:50:00, 0.1,24.4
2023/07/18 23:00:00, 0.1,24.4
2023/07/18 23:10:00, 0.1,24.4
2023/07/18 23:20:00, 0.1,24.3
2023/07/18 23:30:00, 0.1,24.5
2023/07/18 23:40:00, 0.1,24.3
2023/07/18 23:50:00, 0.1,24.3
